Hurricane Symbol View the latest observations near Atlantic Tropical Depression Alberto.

Station RLOT2 - 8770971 - Rollover Pass, TX Image indicating link to RSS feed of recent meteorological observations for station RLOT2


Conditions at RLOT2 as of
(9:18 am CDT)
1418 GMT on 06/20/2024:
     

Click on the graph icon in the table below to see a time series plot of the last five days of that observation.

5-day plot - Wind Direction Wind Direction (WDIR): E ( 80 deg true )
5-day plot - Wind Speed Wind Speed (WSPD): 18.1 kts
5-day plot - Wind Gust Wind Gust (GST): 22.0 kts
5-day plot - Atmospheric Pressure Atmospheric Pressure (PRES):30.03 in
5-day plot - Air Temperature Air Temperature (ATMP): 80.6 °F
5-day plot - Water Temperature Water Temperature (WTMP): 86.4 °F
5-day plot - Wind Speed at 10 Meters Wind Speed at 10 meters (WSPD10M): 17.5 kts
5-day plot - Wind Speed at 20 Meters Wind Speed at 20 meters (WSPD20M): 19.4 kts
5-day plot -  Wind Speed, Wind Gust and Atmospheric Pressure Combined plot of Wind Speed, Gust, and Air Pressure
Previous observations
TIME
(CDT)
5-day plot - Wind Direction
WDIR
 
5-day plot - Wind Speed
WSPD
kts
5-day plot - Wind Gust
GST
kts
5-day plot - Wave Height
WVHT
ft
5-day plot - Dominant Wave Period
DPD
sec
5-day plot - Average Wave Period
APD
sec
5-day plot - Mean Wave Direction
MWD
 
5-day plot - Atmospheric Pressure
PRES
in
5-day plot - Pressure Tendency
PTDY
in
5-day plot - Air Temperature
ATMP
°F
5-day plot - Water Temperature
WTMP
°F
5-day plot - Dew Point
DEWP
°F
5-day plot - Salinity
SAL
psu
5-day plot - Visibility
VIS
nmi
5-day plot - Tide (above MLLW)
TIDE
ft
2024-06-20 09:12 am E 17.1 21.0----30.03- 80.6 86.4----
2024-06-20 09:06 amENE 17.1 20.0----30.03- 80.4 86.4----
2024-06-20 09:00 amENE 18.1 20.0----30.03+0.06 80.4 86.4----
2024-06-20 08:54 amENE 14.0 18.1----30.03- 79.9 86.4----
2024-06-20 08:48 amENE 15.9 19.0----30.02- 79.5 86.2----
2024-06-20 08:42 amENE 15.0 17.1----30.02- 79.5 86.2----
2024-06-20 08:36 amENE 15.0 18.1----30.01- 79.3 86.2----
2024-06-20 08:30 amENE 14.0 18.1----30.01- 79.3 86.2----
2024-06-20 08:24 amENE 14.0 17.1----30.01- 79.3 86.2----
2024-06-20 08:18 amENE 15.9 20.0----30.01- 79.2 86.2----
2024-06-20 08:12 amENE 13.0 15.0----30.01- 79.2 86.2----
2024-06-20 08:06 amENE 15.0 17.1----30.01- 79.3 86.4----
2024-06-20 08:00 am E 14.0 18.1----30.00+0.04 79.2 86.2----
2024-06-20 07:54 amENE 15.9 18.1----30.00- 79.2 86.4----
2024-06-20 07:48 am E 14.0 19.0----30.00- 79.2 86.2----
2024-06-20 07:42 amENE 14.0 17.1----30.00- 79.2 86.2----
2024-06-20 07:36 amENE 13.0 15.0----29.99- 79.2 86.2----
2024-06-20 07:30 am E 13.0 15.0----29.99- 79.0 86.2----
2024-06-20 07:24 am E 13.0 18.1----29.99- 79.3 85.8----
2024-06-20 07:18 amENE 14.0 18.1----29.98- 79.3 85.8----
2024-06-20 07:12 amENE 13.0 15.9----29.98- 79.5 85.8----
2024-06-20 07:06 amENE 13.0 22.0----29.98- 79.9 85.8----
2024-06-20 07:00 am E 22.0 26.0----29.98+0.03 82.6 85.8----
2024-06-20 06:54 am E 21.0 27.0----29.98- 82.8 85.8----
2024-06-20 06:48 am E 22.0 25.1----29.98- 82.8 85.8----
2024-06-20 06:42 amESE 21.0 25.1----29.98- 82.6 85.8----
2024-06-20 06:36 am E 22.0 26.0----29.98- 82.6 85.6----
2024-06-20 06:30 am E 21.0 25.1----29.97- 82.4 85.6----
2024-06-20 06:24 am E 21.0 24.1----29.97- 81.9 85.6----
2024-06-20 06:18 amESE 20.0 24.1----29.97- 82.8 85.6----
2024-06-20 06:12 amESE 17.1 24.1----29.97- 82.6 85.6----
2024-06-20 06:06 amESE 21.0 26.0----29.97- 82.8 85.6----
2024-06-20 06:00 amESE 19.0 22.0----29.97+0.02 82.6 85.6----
2024-06-20 05:54 am E 17.1 22.9----29.97- 82.6 85.6----
2024-06-20 05:48 amESE 22.0 26.0----29.96- 82.8 85.6----
2024-06-20 05:42 amESE 22.9 27.0----29.97- 82.8 85.6----
2024-06-20 05:36 amESE 21.0 26.0----29.96- 82.8 85.5----
2024-06-20 05:30 amESE 21.0 26.0----29.96- 82.8 85.6----
2024-06-20 05:24 amESE 18.1 25.1----29.96- 82.6 85.6----
2024-06-20 05:18 am E 20.0 24.1----29.96- 82.6 85.6----
2024-06-20 05:12 amESE 20.0 25.1----29.96- 82.6 85.6----
2024-06-20 05:06 amESE 21.0 26.0----29.96- 82.8 85.6----
2024-06-20 05:00 amESE 22.0 26.0----29.96+0.00 82.8 85.5----
2024-06-20 04:54 amESE 24.1 28.0----29.96- 82.8 85.5----
2024-06-20 04:48 amESE 24.1 28.0----29.96- 82.6 85.6----
2024-06-20 04:42 amESE 22.9 26.0----29.96- 82.6 85.6----
2024-06-20 04:36 amESE 21.0 27.0----29.96- 82.6 85.6----
2024-06-20 04:30 am E 21.0 26.0----29.96- 82.6 85.6----
2024-06-20 04:24 am E 22.0 25.1----29.96- 82.8 85.6----
2024-06-20 04:18 amESE 20.0 25.1----29.96- 82.8 85.6----
2024-06-20 04:12 am E 20.0 26.0----29.96- 82.6 85.6----
2024-06-20 04:06 am E 22.0 25.1----29.95- 82.8 85.6----
2024-06-20 04:00 amESE 24.1 29.9----29.95-0.01 82.8 85.6----
2024-06-20 03:54 amESE 20.0 25.1----29.95- 82.8 85.6----
2024-06-20 03:48 amESE 22.0 26.0----29.95- 82.8 85.6----
2024-06-20 03:42 amESE 21.0 26.0----29.95- 82.6 85.6----
2024-06-20 03:36 amESE 21.0 28.0----29.96- 82.8 85.6----
2024-06-20 03:30 amESE 19.0 25.1----29.95- 82.8 85.6----
2024-06-20 03:24 amESE 21.0 26.0----29.96- 82.8 85.6----
2024-06-20 03:18 amESE 22.9 29.9----29.95- 82.9 85.5----
2024-06-20 03:12 amESE 24.1 28.9----29.95- 82.8 85.5----
2024-06-20 03:06 am E 19.0 28.9----29.95- 82.6 85.5----
2024-06-20 03:00 amESE 24.1 27.0----29.95-0.02 82.8 85.5----
2024-06-20 02:54 am E 22.9 28.0----29.95- 82.8 85.5----
2024-06-20 02:48 am E 21.0 26.0----29.95- 82.6 85.5----
2024-06-20 02:42 amESE 20.0 25.1----29.95- 82.4 85.5----
2024-06-20 02:36 amESE 20.0 25.1----29.95- 82.2 85.5----
2024-06-20 02:30 am E 22.0 25.1----29.95- 82.0 85.5----
2024-06-20 02:24 am E 21.0 25.1----29.95- 82.4 85.5----
2024-06-20 02:18 am E 20.0 27.0----29.95- 82.6 85.5----
2024-06-20 02:12 amESE 22.0 28.0----29.96- 82.4 85.5----
2024-06-20 02:06 am E 17.1 22.9----29.95- 81.3 85.5----
2024-06-20 02:00 am E 22.0 33.0----29.95-0.01 81.5 85.5----
2024-06-20 01:54 amESE 22.9 26.0----29.95- 82.8 85.5----
2024-06-20 01:48 am E 19.0 25.1----29.95- 82.2 85.5----
2024-06-20 01:42 am E 19.0 24.1----29.95- 82.0 85.5----
2024-06-20 01:36 am E 19.0 24.1----29.96- 81.7 85.5----
2024-06-20 01:30 am E 19.0 25.1----29.96- 80.6 85.5----
2024-06-20 01:24 am E 22.0 28.0----29.96- 81.5 85.5----
2024-06-20 01:18 am E 17.1 22.0----29.96- 81.5 85.5----
2024-06-20 01:12 am E 19.0 22.0----29.96- 81.7 85.5----
2024-06-20 01:06 am E 19.0 22.9----29.96- 81.9 85.5----
2024-06-20 01:00 am E 19.0 22.9----29.97+0.01 81.9 85.5----
2024-06-20 12:54 am E 20.0 26.0----29.97- 81.5 85.5----
2024-06-20 12:48 am E 20.0 25.1----29.97- 82.4 85.5----
2024-06-20 12:42 amESE 21.0 26.0----29.96- 83.1 85.6----
2024-06-20 12:36 am E 22.9 28.0----29.97- 83.3 85.6----
2024-06-20 12:30 amESE 22.9 27.0----29.97- 83.3 85.6----
2024-06-20 12:24 am E 21.0 26.0----29.97- 83.1 85.6----
2024-06-20 12:18 am E 21.0 25.1----29.97- 83.1 85.6----
2024-06-20 12:12 am E 20.0 28.9----29.97- 83.1 85.6----
2024-06-20 12:06 am E 22.9 27.0----29.97- 83.3 85.6----
2024-06-20 12:00 am E 25.1 28.0----29.97+0.05 83.5 85.6----
2024-06-19 11:54 pm E 22.9 29.9----29.97- 83.3 85.8----
2024-06-19 11:48 pm E 24.1 28.9----29.97- 83.5 85.8----
2024-06-19 11:42 pmESE 25.1 28.0----29.97- 83.5 85.8----
2024-06-19 11:36 pm E 25.1 29.9----29.97- 83.5 85.8----
2024-06-19 11:30 pm E 22.0 28.0----29.97- 83.3 85.8----
2024-06-19 11:24 pm E 25.1 29.9----29.97- 83.5 85.8----
2024-06-19 11:18 pm E 24.1 28.9----29.97- 83.5 85.8----
2024-06-19 11:12 pm E 22.0 27.0----29.97- 83.3 85.8----
2024-06-19 11:06 pm E 24.1 28.9----29.97- 83.5 85.8----
2024-06-19 11:00 pm E 24.1 28.0----29.97+0.05 83.5 85.8----
2024-06-19 10:54 pm E 24.1 28.0----29.96- 83.3 85.8----
2024-06-19 10:48 pm E 22.0 28.0----29.96- 83.3 86.0----
2024-06-19 10:42 pm E 22.9 28.0----29.96- 83.5 86.0----
2024-06-19 10:36 pmESE 26.0 31.1----29.96- 83.7 86.0----
2024-06-19 10:30 pm E 22.9 28.9----29.96- 83.5 86.0----
2024-06-19 10:24 pm E 24.1 28.0----29.96- 83.5 86.0----
2024-06-19 10:18 pm E 26.0 28.9----29.96- 83.7 86.0----
2024-06-19 10:12 pm E 22.9 28.9----29.95- 83.5 86.0----
2024-06-19 10:06 pm E 24.1 32.1----29.95- 83.7 86.2----
2024-06-19 10:00 pm E 27.0 31.1----29.95+0.06 83.8 86.2----
2024-06-19 09:54 pm E 25.1 29.9----29.95- 83.8 86.2----
2024-06-19 09:48 pm E 24.1 28.9----29.95- 83.8 86.2----
2024-06-19 09:42 pm E 22.0 28.9----29.94- 83.8 86.2----
2024-06-19 09:36 pm E 22.9 27.0----29.94- 83.8 86.2----
2024-06-19 09:30 pm E 21.0 27.0----29.94- 83.7 86.2----
2024-06-19 09:24 pm E 22.9 28.9----29.94- 83.8 86.2----
2024-06-19 09:18 pm E 22.9 26.0----29.93- 83.8 86.2----
2024-06-19 09:12 pm E 25.1 28.9----29.93- 84.2 86.2----
2024-06-19 09:06 pm E 19.0 25.1----29.93- 84.0 86.4----
2024-06-19 09:00 pm E 19.0 25.1----29.93+0.03 84.0 86.4----
2024-06-19 08:54 pm E 20.0 25.1----29.93- 84.0 86.4----
2024-06-19 08:48 pm E 22.9 28.9----29.92- 84.0 86.4----
2024-06-19 08:42 pm E 24.1 29.9----29.92- 84.2 86.4----
2024-06-19 08:36 pm E 24.1 28.9----29.92- 84.2 86.4----
2024-06-19 08:30 pm E 25.1 31.1----29.92- 84.2 86.5----
2024-06-19 08:24 pm E 22.0 28.9----29.92- 84.0 86.5----
2024-06-19 08:18 pm E 26.0 32.1----29.92- 84.2 86.4----
2024-06-19 08:12 pm E 26.0 29.9----29.92- 84.2 86.4----
2024-06-19 08:06 pm E 25.1 29.9----29.91- 84.2 86.5----
2024-06-19 08:00 pmESE 24.1 28.9----29.91+0.02 84.4 86.5----
2024-06-19 07:54 pm E 24.1 28.0----29.91- 84.2 86.5----
2024-06-19 07:48 pm E 21.0 28.0----29.91- 83.8 86.5----
2024-06-19 07:42 pm E 21.0 28.9----29.90- 84.0 86.5----
2024-06-19 07:36 pm E 22.9 28.9----29.90- 84.0 86.5----
2024-06-19 07:30 pm E 22.0 28.9----29.90- 84.0 86.5----
2024-06-19 07:24 pm E 24.1 31.1----29.89- 84.2 86.7----
2024-06-19 07:18 pm E 25.1 29.9----29.89- 84.2 86.7----
2024-06-19 07:12 pm E 24.1 29.9----29.89- 84.0 86.7----
2024-06-19 07:06 pmESE 25.1 32.1----29.89- 84.0 86.7----
2024-06-19 07:00 pm E 22.9 29.9----29.89+0.00 83.8 86.5----
2024-06-19 06:54 pm E 22.0 26.0----29.88- 83.7 86.7----
2024-06-19 06:48 pm E 25.1 27.0----29.88- 83.8 86.5----
2024-06-19 06:42 pm E 17.1 20.0----29.88- 82.6 86.5----
2024-06-19 06:36 pmESE 14.0 17.1----29.88- 81.7 86.5----
2024-06-19 06:30 pmESE 15.0 19.0----29.88- 81.5 86.4----
2024-06-19 06:24 pmESE 17.1 20.0----29.88- 81.1 86.4----
2024-06-19 06:18 pmESE 15.9 20.0----29.89- 80.8 86.4----
2024-06-19 06:12 pmESE 17.1 22.0----29.89- 80.6 86.4----
2024-06-19 06:06 pmESE 18.1 21.0----29.90- 80.4 86.4----
2024-06-19 06:00 pmESE 20.0 22.9----29.90+0.00 80.2 86.2----
2024-06-19 05:54 pmESE 20.0 24.1----29.90- 80.1 86.2----
2024-06-19 05:48 pmESE 21.0 27.0----29.90-- 86.2----
2024-06-19 05:42 pmESE 22.9 27.0----29.90-- 86.2----
2024-06-19 05:36 pm SE 24.1 28.9----29.90-- 86.2----
2024-06-19 05:30 pmESE 24.1 27.0----29.90- 79.5 86.2----
2024-06-19 05:24 pm SE 21.0 24.1----29.90- 79.2 86.4----
2024-06-19 05:18 pm SE 21.0 27.0----29.89- 79.0-----
2024-06-19 05:12 pm SE 22.9 32.1----29.90- 79.2-----
2024-06-19 05:06 pm SE 29.9 33.0----29.90- 79.3-----
2024-06-19 05:00 pmESE 27.0 34.0----29.89+0.01 82.6 86.5----
2024-06-19 04:54 pmESE 21.0 27.0----29.89- 84.2 86.5----
2024-06-19 04:48 pm E 20.0 28.0----29.89- 84.0 86.5----
2024-06-19 04:42 pm E 24.1 27.0----29.89- 84.0 86.5----
2024-06-19 04:36 pmESE 22.0 27.0----29.89- 84.0 86.5----
2024-06-19 04:30 pm E 24.1 28.0----29.88- 84.0 86.5----
2024-06-19 04:24 pm E 20.0 25.1----29.88- 83.8 86.4----
2024-06-19 04:18 pm E 22.0 26.0----29.88- 83.8 86.4----
2024-06-19 04:12 pm E 20.0 28.0----29.88- 83.5 86.4----
2024-06-19 04:06 pm E 22.0 26.0----29.88- 83.5 86.4----
2024-06-19 04:00 pm E 21.0 24.1----29.88-0.01 83.7 86.4----
2024-06-19 03:54 pm E 22.9 27.0----29.88- 83.7 86.4----
2024-06-19 03:48 pm E 21.0 27.0----29.88- 83.5 86.4----
2024-06-19 03:42 pm E 22.0 28.0----29.88- 83.5 86.4----
2024-06-19 03:36 pm E 22.9 27.0----29.88- 83.7 86.2----
2024-06-19 03:30 pm E 22.9 28.9----29.88- 83.5 86.2----
2024-06-19 03:24 pm E 22.9 28.0----29.88- 83.1 86.2----
2024-06-19 03:18 pm E 19.0 22.9----29.88- 81.9 86.2----
2024-06-19 03:12 pm E 19.0 26.0----29.88- 80.2 86.2----
2024-06-19 03:06 pm E 24.1 31.1----29.89- 80.1 86.2----
2024-06-19 03:00 pm E 26.0 32.1----29.89-0.01 81.3 86.2----
2024-06-19 02:54 pm E 22.0 32.1----29.88- 83.5 86.4----
2024-06-19 02:48 pm E 25.1 31.1----29.88- 84.2 86.4----
2024-06-19 02:42 pm E 25.1 29.9----29.88- 84.2 86.4----
2024-06-19 02:36 pm E 26.0 31.1----29.88- 84.2 86.4----
2024-06-19 02:30 pm E 25.1 32.1----29.88- 84.0 86.4----
2024-06-19 02:24 pm E 25.1 31.1----29.88- 83.8 86.4----
2024-06-19 02:18 pm E 25.1 29.9----29.88- 83.8 86.2----
2024-06-19 02:12 pm E 26.0 29.9----29.88- 83.8 86.2----
2024-06-19 02:06 pm E 22.9 28.9----29.88- 83.7 86.2----
2024-06-19 02:00 pm E 24.1 28.0----29.88+0.00 83.5 86.2----
2024-06-19 01:54 pm E 25.1 29.9----29.89- 83.5 86.2----
2024-06-19 01:48 pm E 22.9 29.9----29.89- 83.7 86.2----
2024-06-19 01:42 pm E 27.0 31.1----29.89- 83.8 86.0----
2024-06-19 01:36 pm E 25.1 32.1----29.89- 83.8 86.0----
2024-06-19 01:30 pm E 26.0 34.0----29.89- 83.7 86.0----
2024-06-19 01:24 pm E 27.0 32.1----29.90- 83.7 86.0----
2024-06-19 01:18 pm E 27.0 32.1----29.90- 83.7 86.0----
2024-06-19 01:12 pm E 25.1 34.0----29.89- 83.5 86.0----
2024-06-19 01:06 pm E 26.0 31.1----29.89- 83.5 85.8----
2024-06-19 01:00 pm E 26.0 29.9----29.89+0.03 83.1 85.6----
2024-06-19 12:54 pm E 21.0 27.0----29.89- 82.8 85.6----
2024-06-19 12:48 pm E 22.9 31.1----29.89- 82.4 85.6----
2024-06-19 12:42 pm E 25.1 28.0----29.90- 82.4 85.8----
2024-06-19 12:36 pm E 22.9 27.0----29.90- 82.2 85.8----
2024-06-19 12:30 pm E 25.1 29.9----29.91- 82.4 86.0----
2024-06-19 12:24 pm E 25.1 28.9----29.90- 82.2 86.0----
2024-06-19 12:18 pm E 25.1 28.9----29.90- 82.0 86.2----
2024-06-19 12:12 pm E 24.1 28.0----29.91- 82.0 86.4----
2024-06-19 12:06 pm E 22.0 28.0----29.91- 81.9 86.2----
2024-06-19 12:00 pm E 25.1 28.9----29.90+0.04 82.0 86.2----
2024-06-19 11:54 am E 21.0 28.9----29.90- 81.9 86.2----
2024-06-19 11:48 am E 22.9 28.9----29.90- 81.9 86.4----
2024-06-19 11:42 am E 25.1 32.1----29.90- 81.9 86.4----
2024-06-19 11:36 am E 22.0 27.0----29.89- 81.9 86.4----
2024-06-19 11:30 am E 22.9 28.0----29.89- 81.7 86.4----
2024-06-19 11:24 am E 22.0 27.0----29.89- 81.5 86.4----
2024-06-19 11:18 am E 22.9 27.0----29.88- 81.5 86.4----
2024-06-19 11:12 am E 18.1 24.1----29.88- 81.3 86.4----
2024-06-19 11:06 amENE 20.0 26.0----29.88- 81.0 86.4----
2024-06-19 11:00 amENE 22.9 28.0----29.88+0.03 80.8 86.2----
2024-06-19 10:54 amENE 22.9 26.0----29.88- 80.6 86.2----
2024-06-19 10:48 amENE 22.0 26.0----29.88- 80.6 86.2----
2024-06-19 10:42 amENE 21.0 25.1----29.88- 80.6 86.2----
2024-06-19 10:36 amENE 20.0 26.0----29.88- 80.4 86.4----
2024-06-19 10:30 amENE 21.0 25.1----29.88- 80.2 86.4----
2024-06-19 10:24 amENE 20.0 25.1----29.87- 80.2 86.4----
2024-06-19 10:18 amENE 20.0 25.1----29.87- 80.1 86.4----
2024-06-19 10:12 amENE 20.0 24.1----29.87- 79.9 86.4----
2024-06-19 10:06 amENE 20.0 25.1----29.87- 79.7 86.4----
2024-06-19 10:00 amENE 19.0 24.1----29.87+0.03 79.3 86.2----
2024-06-19 09:54 amENE 20.0 22.9----29.86- 79.0 86.2----
2024-06-19 09:48 amENE 19.0 22.9----29.87- 79.0 86.2----
2024-06-19 09:42 amENE 18.1 21.0----29.87- 78.8 86.2----
2024-06-19 09:36 amENE 19.0 25.1----29.87- 78.6 86.5----
2024-06-19 09:30 amENE 19.0 26.0----29.87- 78.4 86.4----
2024-06-19 09:24 amENE 19.0 22.9----29.86- 78.4 86.2----
2024-06-19 09:18 amENE 18.1 22.9----29.87- 78.4 86.2----
2024-06-19 09:12 amENE 18.1 22.0----29.86- 78.4 86.2----
2024-06-19 09:06 amENE 17.1 21.0----29.87- 78.3 86.5----
2024-06-19 09:00 amENE 19.0 22.0----29.87+0.05 78.1 86.9----
2024-06-19 08:54 amENE 19.0 22.0----29.87- 78.1 86.9----